Location: �chenoz-la-M�line
(47.6009°N, 6.1354°E)
Time: 13:13:07
(UTC+00:00)

Cosmos 2026 Rocket - Pass Details

Date: 27 January 2021
Orbit: 940 x 1000 km, 82.9° (Epoch: 02 March)

Event Time Altitude Azimuth Distance (km) Brightness Sun altitude
Rises 05:15:21 0° 349° (N) 3,719 6.9 -18.9°
Reaches altitude 10° 05:17:53 10° 349° (N) 2,772 6.2 -18.5°
Maximum altitude 05:24:15 79° 265° (W) 1,024 4.0 -17.4°
Drops below altitude 10° 05:30:36 10° 179° (S) 2,763 6.5 -16.4°
Sets 05:33:07 0° 178° (S) 3,706 7.2 -16.0°
